[[{"header":{"parameterUnit":"m.s-1","parameterCategory":1,"la1":30.2991,"la2":30.254,"lo1":-89.0895,"lo2":-89.0444,"dy":0.0017,"dx":0.0017,"nx":28,"ny":28,"refTime":"2023-10-26T09:00:00:Z","depth":0,"parameterNumber":2,"parameterNumberName":"U-component_of_WINDS"},"data":[0,0,0,0,0,0,0,0,0,0,0,0,0,0,0,0,0,0,0,0,0,0,0,0,0,0,0,0,0,0,0,0,0,0,0,0,0,0,0,0,0,0,0,0,0,0,0,0,0,0,0,0,0,0,0,0,0,0,-4.8975,-4.8976,0,-4.9041,-4.9041,-4.9042,-4.899,-4.8988,-4.8985,-4.8983,-4.9048,-4.9051,-4.9055,0,0,0,0,0,0,0,0,0,0,0,0,0,-4.8804,-4.8807,-4.8975,-4.8976,-4.8977,-4.904,-4.9041,-4.9042,-4.899,-4.8987,-4.8985,-4.8982,-4.9046,-4.9051,-4.9055,0,0,0,0,0,0,0,0,0,0,0,0,0,-4.8874,-4.8808,-4.8975,-4.8959,-4.8958,-4.904,-4.9041,-4.9042,-4.8991,-4.8987,-4.8984,-4.8981,-4.9045,-4.905,-4.9056,-4.9157,0,0,-4.9073,-4.9076,0,0,0,0,0,0,0,0,-4.8871,-4.8881,-4.896,-4.896,-4.8959,-4.9004,-4.9004,-4.9081,-4.8992,-4.8978,-4.8983,-4.8979,-4.9035,-4.9042,-4.9061,-4.916,-4.9163,-4.9074,-4.9077,-4.908,-4.9081,0,0,0,0,0,0,0,-4.8866,-4.8878,-4.9001,-4.8961,-4.8961,-4.8947,-4.8954,-4.9019,-4.9024,-4.8979,-4.8975,-4.8984,-4.9035,-4.9056,-4.9062,-4.9164,-4.9074,-4.9079,-4.9082,-4.9084,-4.9349,-4.9353,0,0,0,0,0,0,-4.8863,-4.8874,-4.8999,-4.9003,-4.8906,-4.8953,-4.896,-4.8993,-4.9024,-4.9025,-4.8987,-4.8981,-4.9048,-4.9056,-4.9064,-4.9184,-4.908,-4.9085,-4.9088,-4.9346,-4.935,-4.9354,0,0,0,0,0,0,-4.8859,-4.8874,-4.8996,-4.8938,-4.8952,-4.896,-4.8996,-4.8996,-4.9017,-4.903,-4.903,-4.9007,-4.9045,-4.9056,-4.9135,-4.9185,-4.9087,-4.9093,-4.9341,-4.9347,-4.9352,-4.9424,0,0,0,0,0,0,-4.8855,-4.8873,-4.8912,-4.8939,-4.8955,-4.9066,-4.9,-4.8999,-4.9027,-4.9021,-4.9049,-4.9051,-4.9044,-4.9127,-4.914,-4.9191,-4.9097,-4.9337,-4.9344,-4.935,-4.9417,-4.9432,-4.9444,0,0,0,0,0,-4.8849,-4.8929,-4.8914,-4.893,-4.9004,-4.9069,-4.9078,-4.9069,-4.9031,-4.907,-4.9079,-4.905,-4.9179,-4.9135,-4.915,-4.9204,-4.9333,-4.9342,-4.935,-4.9411,-4.9429,-4.9443,0,0,0,0,0,0,-4.8907,-4.8932,-4.8916,-4.9008,-4.9037,-4.906,-4.9108,-4.9088,-4.9127,-4.9119,-4.9106,-4.9113,-4.9195,-4.9208,-4.9159,-4.9303,-4.925,-4.9261,-4.9291,-4.9308,-4.9321,-4.9315,-4.9102,0,0,0,0,0,-4.8931,-4.8982,-4.9001,-4.908,-4.9096,-4.91,-4.9128,-4.9119,-4.9148,-4.9159,-4.9173,-4.9202,-4.9249,-4.928,-4.9324,-4.942,-4.9425,-4.9465,-4.9478,-4.9489,-4.9498,-4.9549,-4.9566,-4.9381,-4.9381,-4.9381,0,0,-4.8979,-4.9,-4.9033,-4.9093,-4.9114,-4.9166,-4.911,-4.9168,-4.9207,-4.9168,-4.9242,-4.9254,-4.9285,-4.9373,-4.9413,-4.9386,-4.9551,-4.9499,-4.9508,-4.9511,-4.9559,-4.9577,-4.9592,-4.9387,-4.9386,-4.9385,0,0,-4.9095,-4.9116,-4.9184,-4.9207,-4.9241,-4.9243,-4.926,-4.9287,-4.9294,-4.9369,-4.9341,-4.9387,-4.9468,-4.9491,-4.9513,-4.9641,-4.9615,-4.9656,-4.9723,-4.9773,-4.9788,-4.9801,-4.9844,-4.986,-4.9666,-4.9666,-4.9666,0,-4.915,-4.9229,-4.9221,-4.9282,-4.9308,-4.9278,-4.9346,-4.9369,-4.9415,-4.9434,-4.9404,-4.9506,-4.9525,-4.9617,-4.9649,-4.9669,-4.9686,-4.965,-4.9787,-4.98,-4.9811,-4.9853,-4.9869,-4.967,-4.967,-4.9669,-4.9669,0,-4.9295,-4.9351,-4.9402,-4.9448,-4.9481,-4.9545,-4.9546,-4.9581,-4.957,-4.9576,-4.9653,-4.9675,-4.9723,-4.9745,-4.9735,-4.9836,-4.9819,-4.9789,-4.9734,-4.9834,-4.9872,-4.9888,-4.9677,-4.9675,-4.9674,-4.9673,0,0,-4.9445,-4.9488,-4.9507,-4.9527,-4.9564,-4.9606,-4.9669,-4.9717,-4.9746,-4.978,-4.9831,-4.9902,-4.9875,-4.9901,-4.9893,-4.9938,-5.0035,-4.9902,-4.9903,-4.9924,-5.0147,-5.0167,-5.0186,-5.0021,-5.0024,-5.0026,-5.0144,0,-4.956,-4.967,-4.9666,-4.9768,-4.9818,-4.9792,-4.9847,-4.9875,-4.9883,-4.9927,-4.9935,-4.9985,-4.9946,-4.9961,-5.0005,-5.0014,-5.008,-5.0006,-5.0066,-5.0069,-5.0056,-5.0206,-5.0227,-5.0337,-5.0159,-5.0162,-5.0163,0,-4.9708,-4.9748,-4.9855,-4.9885,-4.9906,-4.9955,-4.9999,-5.0042,-5.0073,-5.0076,-5.0106,-5.0092,-5.0155,-5.0103,-5.0189,-5.014,-5.0165,-5.0174,-5.0178,-5.018,-5.0119,-5.021,-5.0372,-5.0387,-5.0187,-5.0186,-5.0184,0,-4.9803,-4.9884,-4.9959,-4.9978,-5.0014,-5.005,-5.0067,-5.0095,-5.0124,-5.0163,-5.0182,-5.0228,-5.0252,-5.0288,-5.0286,-5.0248,-5.0374,-5.0321,-5.0376,-5.0376,-5.04,-5.0398,-5.0566,-5.0422,-5.0422,-5.0422,-5.0421,0,-4.993,-4.9996,-5.0002,-5.0047,-5.0121,-5.0117,-5.0189,-5.0203,-5.0229,-5.0276,-5.0257,-5.0302,-5.0299,-5.0344,-5.0344,-5.0415,-5.0427,-5.043,-5.0428,-5.043,-5.0429,-5.0443,-5.0434,-5.0426,-5.0425,-5.0424,-5.0424,0,-5.0046,-5.0054,-5.0133,-5.0162,-5.0172,-5.0224,-5.0249,-5.0292,-5.03,-5.036,-5.0374,-5.0386,-5.0438,-5.0442,-5.0502,-5.0502,-5.0588,-5.0579,-5.0577,-5.0574,-5.0628,-5.0622,-5.0808,-5.0832,-5.0676,-5.0677,-5.0679,0,-5.0125,-5.0176,-5.0211,-5.0242,-5.0261,-5.0311,-5.0342,-5.034,-5.0373,-5.0414,-5.0452,-5.0503,-5.0543,-5.0629,-5.0642,-5.0688,-5.0679,-5.0741,-5.0686,-5.0685,-5.0677,-5.0673,-5.0677,-5.0751,-5.0753,-5.0754,-5.0755,0,-5.0263,-5.0265,-5.0309,-5.0356,-5.0393,-5.043,-5.0464,-5.049,-5.0493,-5.053,-5.0584,-5.0616,-5.0679,-5.0729,-5.0775,-5.0792,-5.0774,-5.0773,-5.0788,-5.0788,-5.0784,-5.0784,-5.0603,-5.0768,-5.0767,-5.0766,-5.0765,-5.0764,-5.0361,-5.0405,-5.0437,-5.0488,-5.0514,-5.0546,-5.0588,-5.0602,-5.0648,-5.0699,-5.0696,-5.0756,-5.0787,-5.0847,-5.0868,-5.0914,-5.0893,-5.0915,-5.092,-5.0924,-5.0929,-5.078,-5.0923,-5.0923,-5.0922,-5.0922,-5.0922,0,-5.0496,-5.0516,-5.0563,-5.0612,-5.0652,-5.0635,-5.0672,-5.0706,-5.0759,-5.0791,-5.0831,-5.0894,-5.0943,-5.0962,-5.101,-5.1044,-5.1037,-5.1056,-5.1052,-5.1056,-5.0946,-5.0928,-5.1061,-5.1061,-5.1061,-5.1061,-5.1061,-5.1061,-5.0571,-5.0643,-5.0649,-5.0734,-5.0754,-5.0812,-5.0835,-5.0865,-5.089,-5.0961,-5.1003,-5.1015,-5.1042,-5.1092,-5.1137,-5.1141,-5.1158,-5.1181,-5.1182,-5.1078,-5.1064,-5.105,-5.1032,-5.1186,-5.1186,-5.1287,-5.1288,-5.1289]},{"header":{"parameterUnit":"m.s-1","parameterCategory":1,"la1":30.2991,"la2":30.254,"lo1":-89.0895,"lo2":-89.0444,"dy":0.0017,"dx":0.0017,"nx":28,"ny":28,"refTime":"2023-10-26T09:00:00:Z","depth":0,"parameterNumber":3,"parameterNumberName":"V-component_of_WINDS"},"data":[0,0,0,0,0,0,0,0,0,0,0,0,0,0,0,0,0,0,0,0,0,0,0,0,0,0,0,0,0,0,0,0,0,0,0,0,0,0,0,0,0,0,0,0,0,0,0,0,0,0,0,0,0,0,0,0,0,0,2.3027,2.3028,0,2.3068,2.3068,2.3069,2.3053,2.3052,2.3051,2.3051,2.3089,2.3091,2.3092,0,0,0,0,0,0,0,0,0,0,0,0,0,2.2935,2.2937,2.3027,2.3028,2.3028,2.3068,2.3068,2.3069,2.3053,2.3052,2.3051,2.305,2.3088,2.309,2.3093,0,0,0,0,0,0,0,0,0,0,0,0,0,2.2975,2.2937,2.3027,2.3026,2.3026,2.3068,2.3068,2.3069,2.3054,2.3052,2.3051,2.305,2.3087,2.309,2.3093,2.3138,0,0,2.3102,2.3103,0,0,0,0,0,0,0,0,2.2973,2.2979,2.3025,2.3026,2.3026,2.3054,2.305,2.3092,2.3054,2.3043,2.3051,2.3049,2.3078,2.3082,2.3092,2.314,2.3141,2.3102,2.3103,2.3105,2.3105,0,0,0,0,0,0,0,2.297,2.2977,2.3043,2.3026,2.3026,2.3022,2.3026,2.3058,2.3068,2.3044,2.3043,2.3048,2.3078,2.3089,2.3093,2.3142,2.3102,2.3104,2.3106,2.3107,2.323,2.3232,0,0,0,0,0,0,2.2968,2.2975,2.3042,2.3044,2.2996,2.3025,2.303,2.3046,2.3067,2.3069,2.3049,2.3047,2.3085,2.309,2.3094,2.315,2.3105,2.3107,2.3109,2.3229,2.3231,2.3232,0,0,0,0,0,0,2.2966,2.2974,2.304,2.3009,2.3017,2.3028,2.3047,2.3048,2.3059,2.3071,2.3073,2.3059,2.3084,2.309,2.3128,2.3151,2.3109,2.3111,2.3227,2.3229,2.3232,2.326,0,0,0,0,0,0,2.2963,2.2973,2.2991,2.301,2.3019,2.3074,2.3048,2.305,2.3065,2.3062,2.3081,2.3083,2.3084,2.3124,2.3131,2.3154,2.3113,2.3225,2.3228,2.3231,2.3257,2.3263,2.3268,0,0,0,0,0,2.296,2.2996,2.2992,2.3,2.3041,2.3075,2.308,2.3082,2.3067,2.3084,2.3092,2.3082,2.3147,2.3128,2.3135,2.316,2.3223,2.3227,2.3231,2.3255,2.3262,2.3268,0,0,0,0,0,0,2.2977,2.2998,2.2994,2.3037,2.3055,2.3072,2.3095,2.3089,2.311,2.3107,2.3107,2.3111,2.3151,2.3159,2.3137,2.3205,2.3183,2.3188,2.3199,2.3206,2.3211,2.3209,2.3116,0,0,0,0,0,2.2986,2.3013,2.3029,2.3066,2.3075,2.3084,2.3098,2.3098,2.3116,2.3123,2.3133,2.315,2.3175,2.319,2.3213,2.3258,2.3263,2.3279,2.3285,2.3289,2.3294,2.332,2.3328,2.3244,2.3244,2.3244,0,0,2.3005,2.302,2.3036,2.307,2.3084,2.3111,2.309,2.3119,2.3139,2.3127,2.3164,2.3172,2.3191,2.3233,2.3252,2.3241,2.3318,2.3294,2.3297,2.3299,2.3324,2.3332,2.3339,2.3247,2.3246,2.3246,0,0,2.3053,2.3067,2.31,2.3115,2.3136,2.3142,2.315,2.3169,2.3175,2.3212,2.3204,2.3228,2.3269,2.3284,2.3296,2.3353,2.3345,2.336,2.3389,2.3415,2.3421,2.3427,2.3448,2.3456,2.3364,2.3364,2.3365,0,2.3073,2.3115,2.3117,2.3148,2.3164,2.3156,2.3189,2.3203,2.323,2.3241,2.3229,2.3282,2.3294,2.334,2.3354,2.3364,2.3374,2.3358,2.342,2.3426,2.3431,2.3452,2.346,2.3366,2.3366,2.3366,2.3366,0,2.3139,2.3169,2.3192,2.3222,2.324,2.3271,2.3278,2.3296,2.3295,2.3302,2.3341,2.3355,2.3382,2.3393,2.3391,2.3439,2.3432,2.342,2.3397,2.3441,2.346,2.3468,2.3369,2.3368,2.3368,2.3367,0,0,2.3199,2.323,2.3239,2.3253,2.3277,2.3299,2.3331,2.3359,2.3375,2.3394,2.3422,2.3458,2.3448,2.3462,2.3462,2.3484,2.353,2.347,2.347,2.3481,2.3586,2.3595,2.3604,2.3525,2.3526,2.3527,2.3585,0,2.325,2.3307,2.3311,2.3363,2.3391,2.3384,2.3412,2.343,2.3438,2.3462,2.347,2.3496,2.348,2.3489,2.3511,2.352,2.3551,2.3516,2.355,2.3551,2.3547,2.3614,2.3624,2.3677,2.3592,2.3593,2.3594,0,2.3317,2.3341,2.3396,2.3419,2.343,2.3455,2.3482,2.3505,2.3525,2.3529,2.3547,2.3544,2.3577,2.3554,2.3599,2.3575,2.359,2.3596,2.3599,2.3602,2.3576,2.3621,2.3694,2.3703,2.3606,2.3605,2.3604,0,2.3356,2.3402,2.3442,2.3454,2.348,2.3498,2.351,2.3529,2.3546,2.3569,2.358,2.3606,2.362,2.3641,2.3645,2.3627,2.3691,2.3668,2.3696,2.3696,2.371,2.3709,2.3788,2.3718,2.3718,2.3717,2.3717,0,2.3414,2.3448,2.346,2.3485,2.3523,2.3527,2.3565,2.3576,2.3593,2.3619,2.3614,2.3639,2.3643,2.3668,2.3672,2.371,2.3716,2.372,2.3721,2.3721,2.3721,2.3731,2.3728,2.372,2.3719,2.3719,2.3718,0,2.3464,2.3474,2.3517,2.3539,2.3546,2.3574,2.3593,2.3616,2.3624,2.3657,2.3665,2.3677,2.3707,2.3713,2.3748,2.3751,2.3796,2.3793,2.379,2.379,2.3819,2.3816,2.3907,2.392,2.3841,2.3841,2.3842,0,2.3501,2.3527,2.3554,2.3572,2.3585,2.3614,2.3632,2.3637,2.3656,2.3682,2.3703,2.3732,2.3757,2.3805,2.3816,2.3843,2.3841,2.3871,2.3845,2.3845,2.3843,2.3842,2.3845,2.3876,2.3877,2.3877,2.3878,0,2.3565,2.3569,2.3596,2.3625,2.3647,2.367,2.3691,2.3706,2.3714,2.3736,2.3768,2.3786,2.3823,2.3853,2.3881,2.3892,2.3887,2.3886,2.3894,2.3895,2.3894,2.3896,2.3805,2.3884,2.3883,2.3883,2.3883,2.3882,2.361,2.3635,2.3658,2.3688,2.3706,2.3726,2.375,2.3762,2.3789,2.3821,2.3822,2.3856,2.3877,2.3914,2.3927,2.3954,2.3945,2.3956,2.3959,2.3962,2.3966,2.3889,2.3959,2.3959,2.3959,2.3958,2.3958,0,2.3675,2.369,2.3719,2.375,2.3775,2.3769,2.3793,2.3814,2.3845,2.3865,2.389,2.3927,2.3956,2.3971,2.4,2.4019,2.4017,2.4026,2.4025,2.4028,2.3972,2.3962,2.4027,2.4027,2.4027,2.4027,2.4027,2.4027,2.3712,2.3754,2.3761,2.3811,2.3825,2.3861,2.3875,2.3895,2.3911,2.3953,2.3979,2.3988,2.4007,2.4037,2.4064,2.4068,2.4079,2.409,2.4092,2.4039,2.4032,2.4025,2.4017,2.4092,2.4092,2.4147,2.4147,2.4148]}]]